Regional Weather Roundup
Issued by NWS

Home | Current Version | Previous Version | Text Only | Print | Product List | Glossary On
Versions: 1 2 3 4 5 6 7 8 9 10 11 12 13 14 15 16 17 18 19 20 21 22 23 24 25 26 27 28 29 30 31 32 33 34 35 36 37 38 39 40 41 42 43 44 45 46 47 48 49 50
000
ASUS44 KOUN 250310
RWROK

WEATHER ROUNDUP FOR OKLAHOMA
NATIONAL WEATHER SERVICE NORMAN OK
1000 PM CDT FRI OCT 24 2014

NOTE: "FAIR" INDICATES FEW OR NO CLOUDS BELOW 12,000 FEET WITH NO
      SIGNIFICANT WEATHER AND/OR OBSTRUCTIONS TO VISIBILITY.

OKZ001>007-009>012-014-015-017-250400-
NORTHWEST OKLAHOMA AND THE PANHANDLE

CITY           SKY/WX    TMP DP  RH WIND       PRES   REMARKS
GAGE           CLEAR     68  60  75 S12       30.06R
ENID/WOODRING    N/A     64  61  88 CALM      30.02S
$$

OKZ016-021>023-033>039-044-045-250400-
SOUTHWEST OKLAHOMA

CITY           SKY/WX    TMP DP  RH WIND       PRES   REMARKS
LAWTON/REGL    CLEAR     72  59  63 SE6       30.05R
LAWTON/FT SILL CLEAR     71  60  68 S7        30.04R
FREDERICK      PTCLDY    71  58  63 S8        30.03R
CLINTON        CLEAR     74  56  53 S13       30.08R
HOBART         CLEAR     72  57  59 S12       30.06R
ALTUS AFB      CLEAR     67  58  72 SE6       30.06R
$$

OKZ018>020-024>031-250400-
CENTRAL OKLAHOMA

CITY           SKY/WX    TMP DP  RH WIND       PRES   REMARKS
OKLAHOMA CITY  CLEAR     67  60  78 S7        30.06R
OKC/WILEY POST CLEAR     71  61  70 S8        30.05R
OKC/TINKER AFB CLEAR     68  61  77 S8        30.06R
STILLWATER     CLEAR     69  61  75 SE5       30.04R
GUTHRIE        CLEAR     71  62  73 S7        30.04R
$$

OKZ008-013-054>072-250400-
NORTHEAST OKLAHOMA

CITY           SKY/WX    TMP DP  RH WIND       PRES   REMARKS
TULSA          PTCLDY    70  62  76 S7        30.03R
TULSA/JONES    CLEAR     63  62  97 CALM      30.05R
PONCA CITY     CLEAR     71  62  73 S5        30.03R
BARTLESVILLE   CLEAR     61  61 100 CALM      30.04R
MUSKOGEE       CLEAR     64  59  83 SE8       30.07S
$$

OKZ032-040>043-046>053-073>077-250400-
SOUTH CENTRAL/SOUTHEAST OKLAHOMA

CITY           SKY/WX    TMP DP  RH WIND       PRES   REMARKS
ARDMORE/DWNTWN CLEAR     66  61  82 CALM      30.08R
MCALESTER      CLEAR     66  60  81 SW3       30.09R
$$




USA.gov is the U.S. government's official web portal to all federal, state and local government web resources and services.